Location: ??????
(41.3164°N, 22.6615°E)
Time: 13:14:39
(UTC+00:00)

H-2A R/B - Pass Details

Date: 26 May 2022
Orbit: 576 x 653 km, 98.5° (Epoch: 30 June)

Event Time Altitude Azimuth Distance (km) Brightness Sun altitude
Rises 19:05:14 0° 6° (N) 2,798 6.0 -12.0°
Reaches altitude 10° 19:07:27 10° 360° (N) 1,895 5.2 -12.3°
Maximum altitude 19:11:20 43° 289° (WNW) 816 3.2 -12.8°
Drops below altitude 10° 19:15:13 10° 217° (SW) 1,895 4.5 -13.4°
Sets 19:17:27 0° 211° (SSW) 2,799 5.3 -13.7°
